GW4712 Weather Reports


Display with metric or nautical units.
time (UTC)temp
F
wind
direction
speed
MPH
gust
MPH
rain 1hr
in
rain 24hr
in
rain mn
in
humidity
%
barometer
mb
20260509222505 71 247 4.0 4.0 0.00 0.00 0.00 53 1009.5
20260509222001 71 273 1.0 6.0 0.00 0.00 0.00 51 1009.5
20260509221457 71 311 4.0 7.0 0.00 0.00 0.00 53 1009.6
20260509220953 71 272 1.0 3.0 0.00 0.00 0.00 54 1009.6
20260509220444 71 232 4.0 4.0 0.00 0.00 0.00 55 1009.7
20260509215940 69 323 2.0 11.0 0.00 0.00 0.00 56 1009.5
20260509215435 69 249 3.0 7.0 0.00 0.00 0.00 55 1009.5
20260509214933 70 297 3.0 6.0 0.00 0.00 0.00 55 1009.6
20260509214430 70 319 7.0 10.0 0.00 0.00 0.00 53 1009.8
20260509213927 70 256 4.0 7.0 0.00 0.00 0.00 54 1009.5
20260509213422 71 312 4.0 6.0 0.00 0.00 0.00 55 1009.6
20260509212921 69 238 3.0 3.0 0.00 0.00 0.00 57 1009.6
20260509212418 69 301 5.0 13.0 0.00 0.00 0.00 59 1009.6
20260509211914 69 332 2.0 6.0 0.00 0.00 0.00 58 1009.5
20260509211410 70 294 3.0 8.0 0.00 0.00 0.00 57 1009.6
20260509210906 69 296 4.0 7.0 0.00 0.00 0.00 59 1009.7
20260509210404 70 316 3.0 7.0 0.00 0.00 0.00 59 1009.4
20260509205904 68 313 3.0 3.0 0.00 0.00 0.00 61 1009.6
20260509205403 69 148 1.0 6.0 0.00 0.00 0.00 57 1009.8
20260509204900 69 298 0.0 1.0 0.00 0.00 0.00 58 1009.6
20260509204356 68 260 5.0 7.0 0.00 0.00 0.00 60 1009.6
20260509203853 68 251 3.0 6.0 0.00 0.00 0.00 60 1009.5
20260509203349 69 311 8.0 14.0 0.00 0.00 0.00 59 1009.6
20260509202846 70 323 3.0 6.0 0.00 0.00 0.00 57 1009.6
20260509202342 68 317 4.0 4.0 0.00 0.00 0.00 63 1009.7
20260509201837 69 309 3.0 8.0 0.00 0.00 0.00 59 1009.9
20260509201333 69 314 7.0 11.0 0.00 0.00 0.00 61 1009.9
20260509200830 68 317 2.0 6.0 0.00 0.00 0.00 64 1009.8
20260509200325 68 285 4.0 4.0 0.00 0.00 0.00 62 1009.9
20260509195822 67 312 7.0 9.0 0.00 0.00 0.00 60 1009.8
20260509195322 67 324 6.0 9.0 0.00 0.00 0.00 63 1010.1
20260509194816 67 327 6.0 10.0 0.00 0.00 0.00 63 1010.1
20260509194313 68 322 2.0 6.0 0.00 0.00 0.00 60 1010.2
20260509193810 68 327 5.0 9.0 0.00 0.00 0.00 64 1010.3
20260509193310 67 247 4.0 6.0 0.00 0.00 0.00 59 1010.2
20260509192806 66 262 3.0 4.0 0.00 0.00 0.00 62 1010.1
20260509192305 66 322 2.0 3.0 0.00 0.00 0.00 63 1010.1
20260509191757 66 227 3.0 4.0 0.00 0.00 0.00 61 1010.2
20260509191254 65 249 5.0 7.0 0.00 0.00 0.00 62 1010.2
20260509190749 65 177 7.0 9.0 0.00 0.00 0.00 62 1010.0
20260509190247 66 312 6.0 8.0 0.00 0.00 0.00 62 1010.1
20260509185744 65 261 3.0 4.0 0.00 0.00 0.00 62 1010.0
20260509185240 65 229 3.0 6.0 0.00 0.00 0.00 61 1010.0
20260509184738 65 316 5.0 9.0 0.00 0.00 0.00 61 1010.1
20260509184235 66 313 5.0 8.0 0.00 0.00 0.00 58 1010.2
20260509183732 66 307 2.0 6.0 0.00 0.00 0.00 59 1010.1
20260509183227 65 311 4.0 6.0 0.00 0.00 0.00 62 1010.2
20260509182722 65 255 3.0 8.0 0.00 0.00 0.00 60 1010.1
20260509182220 65 291 3.0 9.0 0.00 0.00 0.00 58 1010.3
20260509181717 65 273 4.0 9.0 0.00 0.00 0.00 61 1010.3
20260509181215 65 247 4.0 11.0 0.00 0.00 0.00 59 1010.3
20260509180712 66 247 6.0 9.0 0.00 0.00 0.00 60 1010.0
20260509180208 66 316 3.0 7.0 0.00 0.00 0.00 57 1010.2
20260509175705 65 313 4.0 10.0 0.00 0.00 0.00 57 1010.2
20260509175201 65 197 2.0 7.0 0.00 0.00 0.00 58 1010.4
20260509174656 65 193 0.0 6.0 0.00 0.00 0.00 56 1010.1
20260509174151 63 314 3.0 7.0 0.00 0.00 0.00 59 1010.3
20260509173648 63 239 2.0 6.0 0.00 0.00 0.00 58 1010.4
20260509173143 63 240 4.0 6.0 0.00 0.00 0.00 57 1010.6
20260509172640 64 317 3.0 6.0 0.00 0.00 0.00 57 1010.4
20260509172136 63 255 4.0 4.0 0.00 0.00 0.00 60 1010.6
20260509171632 63 281 2.0 6.0 0.00 0.00 0.00 60 1010.6
20260509171129 62 241 2.0 4.0 0.00 0.00 0.00 61 1010.5
20260509170625 62 260 2.0 4.0 0.00 0.00 0.00 60 1011.1
20260509170121 62 264 0.0 2.0 0.00 0.00 0.00 60 1010.8
20260509165619 62 261 3.0 6.0 0.00 0.00 0.00 62 1010.9
20260509165115 63 263 3.0 4.0 0.00 0.00 0.00 59 1010.8
20260509164611 62 257 2.0 3.0 0.00 0.00 0.00 59 1010.7
20260509164107 62 177 2.0 8.0 0.00 0.00 0.00 59 1010.7
20260509163606 62 312 0.0 1.0 0.00 0.00 0.00 61 1010.6
20260509163100 62 323 4.0 7.0 0.00 0.00 0.00 60 1010.6
20260509162557 62 183 1.0 2.0 0.00 0.00 0.00 67 1010.5
20260509162053 62 329 2.0 7.0 0.00 0.00 0.00 64 1010.5
20260509161550 62 321 2.0 3.0 0.00 0.00 0.00 67 1010.6
20260509161045 62 311 2.0 3.0 0.00 0.00 0.00 71 1010.5
20260509160541 62 279 2.0 2.0 0.00 0.00 0.00 68 1010.6
20260509160037 61 91 1.0 1.0 0.00 0.00 0.00 72 1010.8
20260509155533 61 310 0.0 2.0 0.00 0.00 0.00 73 1010.5
20260509155030 61 293 0.0 0.0 0.00 0.00 0.00 71 1010.4
20260509154526 60 248 0.0 2.0 0.00 0.00 0.00 72 1010.4
20260509154024 60 135 0.0 0.0 0.00 0.00 0.00 72 1010.5
20260509153520 60 288 0.0 1.0 0.00 0.00 0.00 74 1010.5
20260509153017 60 307 2.0 3.0 0.00 0.00 0.00 73 1010.4
20260509152513 60 310 2.0 2.0 0.00 0.00 0.00 72 1010.5
20260509152009 60 133 1.0 2.0 0.00 0.00 0.00 72 1010.5
20260509151506 61 233 0.0 4.0 0.00 0.00 0.00 71 1010.3
20260509151005 61 63 3.0 3.0 0.00 0.00 0.00 72 1010.5
20260509150501 61 8 1.0 1.0 0.00 0.00 0.00 71 1010.5
20260509150000 61 88 2.0 7.0 0.00 0.00 0.00 70 1010.4
20260509145455 61 14 1.0 1.0 0.00 0.00 0.00 73 1010.5
20260509144950 62 291 2.0 3.0 0.00 0.00 0.00 69 1010.7
20260509144448 60 305 0.0 1.0 0.00 0.00 0.00 75 1010.6
20260509143944 60 154 1.0 2.0 0.00 0.00 0.00 73 1010.8
20260509143442 60 294 0.0 0.0 0.00 0.00 0.00 74 1010.8
20260509142938 60 75 2.0 2.0 0.00 0.00 0.00 73 1010.7
20260509142434 60 105 2.0 2.0 0.00 0.00 0.00 74 1010.7
20260509141930 59 49 0.0 0.0 0.00 0.00 0.00 75 1010.6
20260509141427 59 48 1.0 2.0 0.00 0.00 0.00 75 1010.5
20260509140924 59 265 0.0 0.0 0.00 0.00 0.00 75 1010.8
20260509140420 59 266 0.0 0.0 0.00 0.00 0.00 76 1010.9
20260509135919 59 235 2.0 3.0 0.00 0.00 0.00 76 1010.9
20260509135416 59 235 2.0 3.0 0.00 0.00 0.00 76 1010.9
20260509134913 59 228 1.0 2.0 0.00 0.00 0.00 77 1010.9
20260509134410 0 0.0 0.0 0.00 0.00 0.00 1010.6
20260509133907 0 0.0 0.0 0.00 0.00 0.00 1010.7
20260509133404 0 0.0 0.0 0.00 0.00 0.00 1010.8
20260509132903 0 0.0 0.0 0.00 0.00 0.00 1010.9
20260509132400 0 0.0 0.0 0.00 0.00 0.00 1010.9
20260509131857 0 0.0 0.0 0.00 0.00 0.00 1010.8
20260509131354 0 0.0 0.0 0.00 0.00 0.00 1011.1
20260509130851 53 278 0.0 0.0 0.00 0.00 0.00 92 1011.2
20260509130346 53 278 0.0 0.0 0.00 0.00 0.00 92 1011.2
20260509125843 0 0.0 0.0 0.00 0.00 0.00 1011.2
20260509125339 0 0.0 0.0 0.00 0.00 0.00 1011.2
20260509124836 0 0.0 0.0 0.00 0.00 0.00 1011.4
20260509124333 0 0.0 0.0 0.00 0.00 0.00 1011.4
20260509123831 53 278 0.0 0.0 0.00 0.00 0.00 92 1011.5
20260509123327 53 278 0.0 0.0 0.00 0.00 0.00 92 1011.5
20260509122823 53 278 0.0 0.0 0.00 0.00 0.00 93 1011.4
20260509122320 52 278 0.0 0.0 0.00 0.00 0.00 93 1011.4
20260509121817 52 278 0.0 0.0 0.00 0.00 0.00 94 1011.3
20260509121314 52 278 0.0 0.0 0.00 0.00 0.00 94 1011.3
20260509120813 52 278 0.0 0.0 0.00 0.00 0.00 94 1011.3
20260509120310 52 278 0.0 0.0 0.00 0.00 0.00 94 1011.3
20260509115808 51 274 0.0 0.0 0.00 0.00 0.00 94 1011.2
20260509115307 51 274 0.0 0.0 0.00 0.00 0.00 94 1011.3
20260509114803 51 274 0.0 0.0 0.00 0.00 0.00 95 1011.3
20260509114301 51 256 0.0 0.0 0.00 0.00 0.00 94 1011.1
20260509113800 51 256 0.0 0.0 0.00 0.00 0.00 94 1011.1
20260509113256 51 256 0.0 0.0 0.00 0.00 0.00 94 1011.1
20260509112753 51 310 0.0 0.0 0.00 0.00 0.00 94 1010.8
20260509112250 51 310 1.0 1.0 0.00 0.00 0.00 94 1010.9
20260509111747 51 310 1.0 1.0 0.00 0.00 0.00 94 1010.8
20260509111244 51 310 0.0 0.0 0.00 0.00 0.00 93 1010.7
20260509110742 51 310 0.0 0.0 0.00 0.00 0.00 93 1010.9
20260509110238 51 310 0.0 0.0 0.00 0.00 0.00 93 1010.9
20260509105736 51 309 0.0 0.0 0.00 0.00 0.00 93 1010.7
20260509105234 51 310 0.0 0.0 0.00 0.00 0.00 92 1010.7
20260509104730 51 310 0.0 0.0 0.00 0.00 0.00 92 1010.8
20260509104227 51 310 0.0 0.0 0.00 0.00 0.00 92 1010.7
20260509103726 51 310 0.0 0.0 0.00 0.00 0.00 93 1010.7
20260509103222 0 0.0 0.0 0.00 0.00 0.00 1010.9
20260509102721 0 0.0 0.0 0.00 0.00 0.00 1010.8
20260509102217 0 0.0 0.0 0.00 0.00 0.00 1010.8
20260509101714 0 0.0 0.0 0.00 0.00 0.00 1010.7
20260509101210 51 310 0.0 0.0 0.00 0.00 0.00 94 1010.9
20260509100708 51 310 0.0 0.0 0.00 0.00 0.00 94 1010.7
20260509100205 51 310 0.0 0.0 0.00 0.00 0.00 93 1010.7
20260509095702 51 310 0.0 0.0 0.00 0.00 0.00 92 1010.7
20260509095159 51 310 0.0 0.0 0.00 0.00 0.00 92 1010.8
20260509094655 51 310 0.0 0.0 0.00 0.00 0.00 92 1010.5
20260509094152 51 310 0.0 0.0 0.00 0.00 0.00 92 1010.7
20260509093651 51 309 0.0 0.0 0.00 0.00 0.00 91 1010.7
20260509093147 51 309 0.0 0.0 0.00 0.00 0.00 91 1010.9
20260509092646 51 309 0.0 0.0 0.00 0.00 0.00 92 1010.6
20260509092143 51 309 0.0 0.0 0.00 0.00 0.00 92 1010.9
20260509091641 51 309 0.0 0.0 0.00 0.00 0.00 91 1011.1
20260509091136 51 309 0.0 0.0 0.00 0.00 0.00 91 1010.8
20260509090635 51 309 0.0 0.0 0.00 0.00 0.00 92 1010.9
20260509090131 51 309 0.0 0.0 0.00 0.00 0.00 92 1010.8
20260509085629 51 309 0.0 0.0 0.00 0.00 0.00 93 1011.3
20260509085124 51 309 0.0 0.0 0.00 0.00 0.00 93 1011.1
20260509084622 51 310 0.0 0.0 0.00 0.00 0.00 91 1011.3
20260509084119 51 310 0.0 0.0 0.00 0.00 0.00 91 1010.9
20260509083616 51 310 0.0 0.0 0.00 0.00 0.00 92 1011.3
20260509083112 0 0.0 0.0 0.00 0.00 0.00 1011.1
20260509082611 0 0.0 0.0 0.00 0.00 0.00 1011.4
20260509082107 52 310 0.0 0.0 0.00 0.00 0.00 91 1011.4
20260509081605 52 310 0.0 0.0 0.00 0.00 0.00 91 1011.3
20260509081102 52 310 0.0 0.0 0.00 0.00 0.00 91 1011.2
20260509080600 52 310 0.0 0.0 0.00 0.00 0.00 91 1011.1
20260509080057 52 309 0.0 0.0 0.00 0.00 0.00 91 1011.2
20260509075554 52 309 0.0 0.0 0.00 0.00 0.00 92 1011.1
20260509075052 52 310 0.0 0.0 0.00 0.00 0.00 91 1011.3
20260509074549 52 310 0.0 0.0 0.00 0.00 0.00 92 1011.1
20260509074045 52 310 0.0 1.0 0.00 0.00 0.00 92 1011.2
20260509073542 52 310 0.0 1.0 0.00 0.00 0.00 92 1011.4
20260509073038 52 144 0.0 0.0 0.00 0.00 0.00 92 1010.9
20260509072535 52 144 0.0 0.0 0.00 0.00 0.00 92 1011.3
20260509072032 52 144 0.0 0.0 0.00 0.00 0.00 92 1010.7
20260509071528 52 144 0.0 0.0 0.00 0.00 0.00 89 1010.6
20260509071026 52 144 0.0 0.0 0.00 0.00 0.00 89 1010.7
20260509070523 52 144 0.0 0.0 0.00 0.00 0.00 89 1010.6
20260509070019 52 144 0.0 0.0 0.00 0.00 0.00 90 1010.5
20260509065514 52 144 0.0 0.0 0.00 0.00 0.00 90 1010.5
20260509065011 52 144 0.0 0.0 0.00 0.00 0.00 90 1010.5
20260509064509 52 144 0.0 0.0 0.00 0.00 0.00 90 1010.4
20260509064007 52 144 0.0 0.0 0.00 0.00 0.00 91 1010.6
20260509063502 53 144 0.0 0.0 0.00 0.00 0.00 91 1010.6
20260509062959 52 144 0.0 0.0 0.00 0.00 0.00 89 1010.5
20260509062456 52 144 0.0 0.0 0.00 0.00 0.00 88 1010.6
20260509061954 52 144 0.0 0.0 0.00 0.00 0.00 88 1010.6
20260509061451 52 144 0.0 0.0 0.00 0.00 0.00 88 1010.7
20260509060948 52 144 0.0 0.0 0.00 0.00 0.00 88 1010.6
20260509060446 52 144 0.0 0.0 0.00 0.00 0.00 88 1010.7
20260509055941 53 144 0.0 0.0 0.00 0.00 0.00 89 1010.7
20260509055436 52 144 0.0 0.0 0.00 0.00 0.00 88 1010.9
20260509054933 52 144 0.0 0.0 0.00 0.00 0.00 88 1011.2
20260509054430 53 144 0.0 0.0 0.00 0.00 0.00 90 1010.8
20260509053928 52 144 0.0 0.0 0.00 0.00 0.00 88 1011.1
20260509053426 52 144 0.0 0.0 0.00 0.00 0.00 89 1011.1
20260509052923 52 144 0.0 0.0 0.00 0.00 0.00 89 1010.9
20260509052420 53 144 0.0 0.0 0.00 0.00 0.00 90 1011.1
20260509051918 52 144 0.0 0.0 0.00 0.00 0.00 88 1011.3
20260509051416 52 144 0.0 0.0 0.00 0.00 0.00 88 1011.2
20260509050912 53 144 0.0 0.0 0.00 0.00 0.00 87 1010.9
20260509050409 53 144 0.0 0.0 0.00 0.00 0.00 86 1011.1
20260509045906 53 144 0.0 0.0 0.00 0.00 0.00 85 1010.8
20260509045403 53 144 0.0 0.0 0.00 0.00 0.00 86 1011.1
20260509044900 53 144 0.0 0.0 0.00 0.00 0.00 88 1011.1
20260509044358 53 144 0.0 0.0 0.00 0.00 0.00 89 1010.9
20260509043854 53 144 0.0 0.0 0.00 0.00 0.00 89 1011.1
20260509043350 53 144 0.0 0.0 0.00 0.00 0.00 88 1011.2
20260509042846 53 144 0.0 0.0 0.00 0.00 0.00 86 1011.2
20260509042343 53 144 0.0 0.0 0.00 0.00 0.00 85 1011.4
20260509041840 53 144 0.0 0.0 0.00 0.00 0.00 87 1011.2
20260509041336 53 144 0.0 0.0 0.00 0.00 0.00 90 1011.2
20260509040835 53 144 0.0 0.0 0.00 0.00 0.00 90 1011.4
20260509040332 53 144 0.0 0.0 0.00 0.00 0.00 88 1011.4
20260509035829 53 144 0.0 0.0 0.00 0.00 0.00 88 1011.5
20260509035326 53 144 0.0 0.0 0.00 0.00 0.00 89 1011.4
20260509034822 53 144 0.0 0.0 0.00 0.00 0.00 87 1011.4
20260509034320 53 144 0.0 0.0 0.00 0.00 0.00 86 1011.4
20260509033817 54 144 0.0 0.0 0.00 0.00 0.00 87 1011.6
20260509033314 54 144 0.0 0.0 0.00 0.00 0.00 87 1011.6
20260509032811 54 144 0.0 0.0 0.00 0.00 0.00 84 1011.6
20260509032308 54 144 0.0 0.0 0.00 0.00 0.00 84 1011.7
20260509031806 54 144 0.0 0.0 0.00 0.00 0.00 84 1011.7
20260509031303 54 144 0.0 0.0 0.00 0.00 0.00 84 1011.6
20260509030800 54 144 0.0 0.0 0.00 0.00 0.00 84 1011.7
20260509030258 54 144 0.0 0.0 0.00 0.00 0.00 84 1011.8
20260509025754 54 144 0.0 0.0 0.00 0.00 0.00 84 1012.0
20260509025250 54 144 0.0 0.0 0.00 0.00 0.00 85 1011.9
20260509024746 54 144 0.0 0.0 0.00 0.00 0.00 83 1011.9
20260509024242 54 144 0.0 0.0 0.00 0.00 0.00 82 1011.7
20260509023739 54 144 0.0 0.0 0.00 0.00 0.00 82 1012.0
20260509023236 54 144 0.0 0.0 0.00 0.00 0.00 83 1012.1
20260509022732 54 144 0.0 0.0 0.00 0.00 0.00 83 1012.0
20260509022230 54 144 0.0 0.0 0.00 0.00 0.00 85 1011.9
20260509021727 55 144 0.0 0.0 0.00 0.00 0.00 86 1011.9
20260509021224 55 144 0.0 0.0 0.00 0.00 0.00 82 1012.0
20260509020722 55 144 0.0 0.0 0.00 0.00 0.00 80 1011.8
20260509020219 55 144 0.0 0.0 0.00 0.00 0.00 81 1011.8
20260509015717 55 144 0.0 0.0 0.00 0.00 0.00 84 1011.9
20260509015215 55 144 0.0 0.0 0.00 0.00 0.00 83 1012.0
20260509014711 55 144 0.0 0.0 0.00 0.00 0.00 84 1011.8
20260509014208 55 144 0.0 0.0 0.00 0.00 0.00 81 1011.9
20260509013705 56 144 0.0 0.0 0.00 0.00 0.00 79 1011.7
20260509013200 56 144 0.0 0.0 0.00 0.00 0.00 81 1011.9
20260509012657 56 144 0.0 0.0 0.00 0.00 0.00 79 1011.8
20260509012154 56 144 0.0 0.0 0.00 0.00 0.00 78 1011.8
20260509011652 56 144 0.0 0.0 0.00 0.00 0.00 77 1011.7
20260509011149 56 144 0.0 0.0 0.00 0.00 0.00 77 1011.8
20260509010647 57 144 0.0 0.0 0.00 0.00 0.00 78 1011.9
20260509010143 57 144 0.0 0.0 0.00 0.00 0.00 77 1011.6
20260509005641 57 144 0.0 0.0 0.00 0.00 0.00 74 1011.8
20260509005137 57 144 0.0 0.0 0.00 0.00 0.00 72 1011.4
20260509004633 57 144 0.0 0.0 0.00 0.00 0.00 78 1011.5
20260509004130 57 144 0.0 0.0 0.00 0.00 0.00 77 1011.5
20260509003628 57 144 0.0 0.0 0.00 0.00 0.00 75 1011.4
20260509003125 57 143 0.0 0.0 0.00 0.00 0.00 74 1011.4
20260509002623 57 144 0.0 0.0 0.00 0.00 0.00 70 1011.4
20260509002120 58 144 0.0 0.0 0.00 0.00 0.00 73 1011.6
20260509001618 58 143 0.0 1.0 0.00 0.00 0.00 68 1011.5
20260509001113 58 143 0.0 1.0 0.00 0.00 0.00 67 1011.5
20260509000612 60 152 1.0 2.0 0.00 0.00 0.00 65 1011.4
20260509000108 62 315 0.0 2.0 0.00 0.00 0.00 60 1010.9
20260508235605 62 130 0.0 0.0 0.00 0.00 0.00 63 1010.7
20260508235101 63 184 0.0 2.0 0.00 0.00 0.00 60 1011.2
20260508234559 64 190 0.0 0.0 0.00 0.00 0.00 54 1011.3
20260508234055 64 150 0.0 2.0 0.00 0.00 0.00 57 1011.5
20260508233550 65 317 1.0 2.0 0.00 0.00 0.00 42 1011.3
20260508233047 65 252 1.0 2.0 0.00 0.00 0.00 53 1011.2
20260508232543 66 323 0.0 2.0 0.00 0.00 0.00 45 1011.1
20260508232040 67 224 1.0 2.0 0.00 0.00 0.00 42 1011.2
20260508231538 67 271 1.0 3.0 0.00 0.00 0.00 40 1011.3
20260508231035 67 298 4.0 4.0 0.00 0.00 0.00 40 1011.4
20260508230532 67 309 4.0 4.0 0.00 0.00 0.00 38 1011.3
20260508230028 67 314 3.0 4.0 0.00 0.00 0.00 40 1011.2
20260508225525 67 220 2.0 4.0 0.00 0.00 0.00 43 1011.2
20260508225022 68 236 1.0 3.0 0.00 0.00 0.00 39 1010.9
20260508224520 68 312 3.0 6.0 0.00 0.00 0.00 37 1011.3
20260508224017 68 219 2.0 4.0 0.00 0.00 0.00 38 1011.2
20260508223515 67 307 5.0 8.0 0.00 0.00 0.00 38 1011.3
20260508223012 68 275 3.0 8.0 0.00 0.00 0.00 37 1011.2